{"data":{"norad_id":81015,"intl_designator":"","name":"UNKNOWN","alt_names":[],"object_type":"UNKNOWN","status":"UNKNOWN","operator":null,"country":null,"launch_date":null,"launch_site_code":null,"launch_vehicle":null,"mission":null,"orbit_class":"UNKNOWN","rcs_meters":null,"size_class":null,"mass_kg":null,"dimensions":null,"purposes":[],"wikipedia_slug":null,"has_3d_model":false,"image_url":null,"decayed_at":null,"tle_current":{"epoch":"2026-09-19T06:40:41.356416Z","epoch_age_seconds":120054,"freshness":"FRESH","line1":"1 81015U          26262.27825644  .00001630  00000+0  89784-3 0  9999","line2":"2 81015  99.3610 287.5654 0134515  93.6373 333.9725 14.08550245 22158","mean_motion":14.08550245,"eccentricity":0.0134515,"inclination_deg":99.361,"raan_deg":287.5654,"arg_perigee_deg":93.6373,"mean_anomaly_deg":333.9725,"bstar":0.00089784,"rev_number":2215,"period_min":102.23277480599,"perigee_km":766.91487520459,"apogee_km":961.75915361424,"semimajor_km":7242.4740144094,"source":"CELESTRAK","updated_at":"2026-09-20T09:00:32.381941Z"}}}